Location: Hradec Kralove
(50.2170°N, 15.8330°E)
Time: 08:54:52
(UTC+01:00)

X-37B - Pass Details

Date: 11 December 2022
Orbit: 277 x 277 km, 45.0° (Epoch: 01 November)

Event Time Altitude Azimuth Distance (km) Brightness Sun altitude
Rises 16:59:42 0° 226° (SW) 1,909 5.6 -9.9°
Reaches altitude 10° 17:02:06 10° 200° (SSW) 1,099 3.5 -10.3°
Maximum altitude 17:03:36 15° 162° (SSE) 884 2.5 -10.5°
Drops below altitude 10° 17:05:06 10° 124° (SE) 1,101 2.6 -10.7°
Enters shadow 17:05:18 - 120° (ESE) 1,156 2.6 -10.8°
